Preview of NWS' New Version of Forecast
This preview is not operational and should not be used for support decisions.
Latest weather observations around

Norwood, Norwood Memorial Airport (KOWD)

Using English Units (Switch to International System of Units)
Date/ Time (EST) Wind (mph) Vis. (mi) Weather Sky Cond. Temp (°F) Rel. Humidity Wind Chill (°F) Heat Index (°F) Pressure Precip. (in)
Air Dwpt 6 hour Altimeter (inHg) Sea level (inHg) 1 hr 3 hr 6 hr
Max Min
Jan 21 22:53 WNW 10 10 Cloudy OVC070 7 -7     52% -8   30.14 30.14      
Jan 21 21:53 WNW 14 10 Cloudy OVC050 7 -7     52% -10   30.1 30.1   0  
Jan 21 20:53 NW 16 10 Cloudy OVC047 7 -7     52% -11   30.07 30.07 0    
Jan 21 19:53   7 Cloudy OVC036 7 -4     60%     30.03 30.03      
Jan 21 18:53 WNW 14 4 Haze OVC038 6 -3     66% -11   30 30     0
Jan 21 17:53   10 Cloudy SCT046 OVC070 6 -6     57%     29.96 29.96      
Jan 21 16:53 WNW 11 10 Cloudy OVC048 6 -6     57% -9   29.92 29.92      
Jan 21 15:53   9 Cloudy SCT047 BKN055 OVC120 7 -9     47%     29.88 29.88 0 0  
Jan 21 14:53   10 Cloudy BKN044 OVC100 7 -7     52%     29.84 29.84      
Jan 21 13:53 WNW 15 10 Mostly Cloudy BKN040 7 -7     52% -10   29.81 29.81 0    
Jan 21 12:53   10 Mostly Cloudy SCT039 BKN055 8 -6     52%     29.81 29.81 0   0
Jan 21 11:53   10 Mostly Cloudy SCT036 BKN095 6 -7     54%     29.81 29.81      
Jan 21 10:53   10 Partly Cloudy SCT046 6 -7     54%     29.82 29.82      
Jan 21 09:53   10 Partly Cloudy SCT045 4 -9     54%     29.81 29.8      
Jan 21 08:53 WNW 14 10 Mostly Clear FEW043 4 -9     54% -14   29.77 29.77      
Jan 21 07:53 W 13 10 Clear CLR 3 -9     56% -14   29.74 29.74      
Jan 21 06:53 W 14 10 Clear CLR 4 -8     57% -14   29.71 29.71      
Jan 21 05:53 W 9 10 Clear CLR 4 -7     60% -10   29.67 29.67      
Jan 21 04:53 WNW 13 10 Clear CLR 5 -6     60% -12   29.65 29.65      
Jan 21 03:53 WNW 15 10 Clear CLR 6 -6     57% -12   29.63 29.63      
Jan 21 02:53 W 15 10 Clear CLR 7 -5     57% -10   29.61 29.61      
Jan 21 01:53 WNW 15 10 Clear CLR 7 -5     57% -10   29.59 29.59      
Jan 21 00:53 WNW 15 10 Clear CLR 8 -4     57% -9   29.57 29.57     0
Jan 20 23:53   10 Clear CLR 9 -3     58%     29.55 29.55 0    
Jan 20 22:53   10 Clear CLR 11 1     64%     29.53 29.53      
Jan 20 21:53 WNW 14 10 Clear CLR 15 5     64% 0   29.48 29.48      
Jan 20 20:53   10 Mostly Cloudy BKN060 19 9     64%     29.42 29.42      
Jan 20 19:53   10 Cloudy SCT022 BKN043 OVC060 25 16     68%     29.39 29.39      
Jan 20 19:33 W 15 10 Cloudy BKN021 OVC060 26 19     74% 14   29.38        
Jan 20 18:53 WNW 11 10 Cloudy FEW013 FEW029 OVC042 27 22     81% 17   29.35 29.36 0   0
Jan 20 18:28 NW 13 10 Cloudy FEW011 BKN029 OVC041 27 22     81% 16   29.33   0    
Jan 20 18:19 NW 9 10 Cloudy FEW011 SCT029 OVC039 27 23     85% 18   29.33   0    
Jan 20 17:53 NNW 8 7 Cloudy SCT010 BKN021 OVC036 26 22     84% 18   29.32 29.32 0    
Jan 20 17:43 NW 10 8 Cloudy BKN010 OVC021 26 22     84% 16   29.32   0    
Jan 20 17:19 NW 10 5 Fog/Mist OVC007 25 22     88% 15   29.32   0    
Jan 20 17:01 NW 9 4 Light Freezing Rain and Fog/Mist OVC007 25 22     88% 16   29.31   0    
Jan 20 16:53 NW 9 2 Light Freezing Rain and Fog/Mist BKN007 OVC016 25 22     88% 16   29.3 29.3 0    
Jan 20 16:40 NW 9 2 Light Freezing Rain and Fog/Mist SCT007 BKN017 OVC023 25 21     85% 16   29.3   0    
Jan 20 16:32 NNW 8 2 Unknown Precipitation and Fog/Mist FEW009 BKN019 OVC024 25 21     85% 16   29.28   0    
Jan 20 16:17 N 8 2 Fog/Mist SCT010 OVC021 24 20     84% 15   29.29   0    
Jan 20 15:53 NNW 11 2 Light Freezing Rain and Fog/Mist FEW010 OVC019 23 19     85% 12   29.29 29.29 0 0  
Jan 20 15:51 NNW 13 2 Light Freezing Rain and Fog/Mist FEW010 OVC019 23 19     86% 11   29.29   0    
Jan 20 15:15   1.5 Light Snow OVC016 22 17     81%     29.31   0    
Jan 20 14:57   1 Light Snow SCT009 OVC014 23 18     81%     29.31   0    
Jan 20 14:53   0.75 Light Snow and Fog/Mist OVC014 23 19     85%     29.31 29.31 0    
Jan 20 14:37   1.5 Light Snow and Fog/Mist BKN005 OVC010 26 22     84%     29.29   0    
Jan 20 14:27   2.5 Light Snow and Fog/Mist OVC005 30 26     85%     29.26   0    
Jan 20 14:09 7 3 Light Freezing Rain and Fog/Mist OVC005 32 30     92% 26   29.24   0    
Jan 20 14:00 6 2.5 Freezing Rain and Fog/Mist OVC005 32 29     88% 26   29.25   0    
Jan 20 13:53 WNW 8 4 Light Freezing Rain and Fog/Mist OVC005 32 30     92% 25   29.25 29.26 0    
Jan 20 13:25 N 5 10 Unknown Precipitation OVC006 31 29     92% 26   29.25   0    
Jan 20 13:00 E 9 5 Light Freezing Rain and Fog/Mist OVC006 31 28     89% 23   29.24   0    
Jan 20 12:53 ENE 9 2.5 Light Freezing Rain and Fog/Mist OVC006 31 28     89% 23   29.26 29.26 0   1
Jan 20 11:53 NNE 8 2.5 Freezing Rain and Fog/Mist OVC007 28 25     88% 20   29.38 29.38 0    
Jan 20 11:41 NNE 8 2.5 Freezing Rain and Fog/Mist OVC008 28 24     85% 20   29.4   0    
Jan 20 11:27 N 8 2.5 Unknown Precipitation and Fog/Mist OVC008 28 25     88% 20   29.41   0    
Jan 20 10:53 N 8 1.75 Unknown Precipitation and Fog/Mist BKN007 OVC080 27 24     89% 19   29.42 29.42 0    
Jan 20 10:51 WNW 9 2 Unknown Precipitation and Fog/Mist BKN008 OVC080 27 25     93% 18   29.44   0    
Jan 20 10:06 6 5 Freezing Rain and Fog/Mist OVC007 29 26     89% 23   29.48   0    
Jan 20 09:53 NNW 10 4 Freezing Rain and Fog/Mist OVC007 29 26     89% 20   29.49 29.49 0 0  
Jan 20 09:30 N 13 3 Light Freezing Rain and Fog/Mist OVC007 30 28     92% 20   29.5   0    
Jan 20 09:20 N 8 2.5 Freezing Rain and Fog/Mist OVC007 31 27     85% 23   29.5   0    
Jan 20 09:13 NNW 8 3 Light Freezing Rain and Fog/Mist OVC006 31 28     89% 23   29.51   0    
Jan 20 09:05 NNW 7 2.5 Freezing Rain and Fog/Mist OVC006 31 29     92% 24   29.51   0    
Jan 20 08:53 NW 8 5 Freezing Rain and Fog/Mist OVC005 32 29     88% 25   29.52 29.52 0    
Jan 20 08:34 NW 9 7 Light Freezing Rain OVC005 33 30     88% 25   29.51   0    
Jan 20 08:25 NW 13 3 Freezing Rain and Fog/Mist BKN005 OVC009 33 31     92% 24   29.51   0    
Jan 20 08:20 N 9 2.5 Rain and Fog/Mist BKN009 OVC041 36 33     89% 29   29.52   0    
Jan 20 07:53 NNE 10 5 Rain and Fog/Mist OVC008 37 34     89% 30   29.55 29.55 0    
Jan 20 06:53 NNE 10 4 Rain and Fog/Mist OVC007 38 35     89% 31   29.62 29.62 0   1
Jan 20 05:53 NE 14 5 Light Rain and Fog/Mist OVC009 37 33     85% 28   29.66 29.66 0    
Jan 20 04:53 NE 15 5 Light Rain and Fog/Mist OVC008 36 33     89% 27   29.73 29.72 0    
Jan 20 04:45 NE 11 4 Rain and Fog/Mist OVC008 36 33     89% 28   29.73   0    
Jan 20 04:43 ENE 13 4 Freezing Rain and Fog/Mist BKN010 OVC013 36 32     85% 27   29.74   0    
Jan 20 04:35 ENE 11 3 Freezing Rain and Fog/Mist BKN009 OVC013 35 32     88% 27   29.76   0    
Jan 20 04:28 NE 15 2 Light Freezing Rain and Fog/Mist BKN009 OVC012 35 32     88% 26   29.77   0    
Jan 20 04:13 ENE 10 1.5 Freezing Rain and Fog/Mist OVC009 35 32     88% 27   29.81   0    
Jan 20 04:03 ENE 16 1.5 Rain and Fog/Mist OVC011 35 31     85% 25   29.82   0    
Jan 20 03:56 ENE 14 1.5 Light Snow and Fog/Mist BKN009 OVC013 35 31     85% 26   29.83   0    
Jan 20 03:53 ENE 13 1.25 Light Snow and Fog/Mist OVC011 35 31     85% 26   29.83 29.83 0 0  
Jan 20 03:43 ENE 11 1.25 Light Snow and Fog/Mist OVC009 34 31     88% 26   29.85   0    
Jan 20 02:53 ENE 16 0.5 Snow and Fog VV007 34 31     88% 24   29.91 29.91 0    
Jan 20 02:13 ENE 15 0.75 Light Snow and Fog/Mist VV008 35 32     88% 26   29.94   0    
Jan 20 01:53 ENE 13 1 Light Snow and Fog/Mist VV008 35 32     88% 26   29.95 29.95 0    
Jan 20 00:53 ENE 13 0.75 Light Snow and Fog/Mist VV008 34 31     88% 25   30 30 0   0
Jan 20 00:51 ENE 11 0.75 Light Snow and Fog/Mist VV008 34 30     86% 25   30   0    
Jan 20 00:41 NE 11 1 Light Snow and Fog/Mist VV009 34 31     88% 26   30.02   0    
Jan 20 00:31 ENE 13 0.75 Light Snow and Fog/Mist VV009 34 30     85% 25   30.01   0    
Jan 19 23:56 ENE 10 1 Light Snow and Fog/Mist VV010 33 30     88% 25   30.07   0    
Jan 19 23:53 ENE 8 0.75 Light Snow and Fog/Mist VV009 33 30     88% 26   30.07 30.07 0    
Jan 19 22:53 ENE 7 0.75 Light Snow and Fog/Mist VV008 32 30     92% 26   30.12 30.12 0    
Jan 19 22:25 NE 8 0.75 Light Snow and Fog/Mist VV009 32 29     88% 25   30.12   0    
Jan 19 21:53 ENE 9 1.25 Light Snow and Fog/Mist SCT009 OVC014 32 28     85% 24   30.13 30.13 0 0  
Jan 19 21:41 ENE 10 1.5 Light Snow and Fog/Mist FEW009 OVC016 32 28     85% 24   30.14   0    
Jan 19 21:20 ENE 10 1.75 Light Snow and Fog/Mist SCT011 OVC017 31 28     89% 22   30.15   0    
Jan 19 20:53 ENE 8 4 Fog/Mist OVC012 31 27     85% 23   30.18 30.18      
Jan 19 20:05 ENE 9 5 Fog/Mist BKN011 OVC016 31 27     85% 23   30.2        
Jan 19 19:53 ENE 9 6 Fog/Mist BKN009 OVC016 31 27     85% 23   30.21 30.21      
Jan 19 19:50 ENE 11 5 Fog/Mist BKN009 OVC016 30 27     86% 21   30.2        
Jan 19 18:53 E 6 6 Fog/Mist BKN010 OVC026 31 27     85% 25   30.22 30.22 0   0
Jan 19 18:42 E 9 5 Fog/Mist BKN010 BKN028 OVC032 31 27     85% 23   30.23   0    
Jan 19 18:01 ENE 8 3 Light Snow and Fog/Mist FEW012 SCT024 OVC035 31 27     85% 23   30.23   0    
Jan 19 17:53 ENE 6 2.5 Light Snow and Fog/Mist FEW012 SCT024 OVC030 31 27     85% 25   30.25 30.25 0    
Jan 19 17:48 ENE 5 2.5 Light Snow and Fog/Mist FEW012 SCT018 OVC026 30 27     86% 25   30.26   0    
Jan 19 16:53 NE 5 7 Cloudy BKN015 OVC022 32 25     75% 27   30.26 30.26 0    
Jan 19 15:53 NNE 5 9 Cloudy OVC021 32 22     66% 27   30.25 30.25      
Jan 19 14:53 ENE 7 10 Cloudy OVC025 31 18     58% 24   30.23 30.23      
Jan 19 14:11 E 7 10 Cloudy OVC029 32 16     51% 26   30.25        
Jan 19 13:53 ENE 9 10 Cloudy OVC031 32 15     49% 24   30.25 30.25      
Jan 19 12:53 E 7 10 Cloudy OVC032 34 14     43% 28   30.27 30.27      
Jan 19 11:53 NE 5 10 Partly Cloudy SCT050 34 14     43% 30   30.31 30.31      
Jan 19 10:53 N 7 10 Clear CLR 35 14     42% 29   30.32 30.32      
Jan 19 09:53 N 9 10 Mostly Clear FEW110 33 14     45% 25   30.31 30.32      
Jan 19 08:53 N 10 10 Clear CLR 31 18     58% 22   30.29 30.29      
Jan 19 07:53 NNE 3 10 Clear CLR 29 20     69% 25   30.27 30.27      
Jan 19 06:53 Calm 10 Clear CLR 18 15     88%     30.25 30.25      
Jan 19 05:53 Calm 10 Clear CLR 18 16     92%     30.22 30.22      
Jan 19 04:53 Calm 10 Clear CLR 20 16     84%     30.2 30.2      
Jan 19 03:53 Calm 10 Clear CLR 22 18     84%     30.19 30.19      
Jan 19 02:53 Calm 10 Clear CLR 22 18     84%     30.16 30.16      
Jan 19 01:53 N 3 10 Clear CLR 24 20     84% 20   30.15 30.15      
Jan 19 00:53 Calm 10 Clear CLR 27 23     85%     30.13 30.13      
Jan 18 23:53 Calm 10 Mostly Clear FEW036 30 24     78%     30.11 30.11      
May 15 06:53 S 6 3 Fog/Mist OVC003 59 57     93%     29.85 29.85      
May 15 04:53 S 5 9 Clear   57 54     89%     29.86 29.85      
May 14 23:53 S 5 10 Clear CLR 57 53     87%     29.9 29.9      
May 14 13:53 SSW 9 10 Partly Cloudy SCT035 70 53     55%     29.93 29.93      
May 14 06:19 SSE 5 10 Cloudy BKN007 OVC030 52 49     89%     30.02        
May 13 23:53 SSE 5 10 Clear CLR 50 47     89% 48   30.08 30.07      
May 13 13:53 NNE 6 10 Mostly Cloudy BKN021 BKN026 60 49     67%     30.18 30.18      
May 13 00:53 NNE 5 6 Fog/Mist OVC006 52 49     89%     30.11 30.11      
May 12 14:15 N 3 10 Cloudy BKN009 OVC013 53 50     89%     30.14        
May 11 20:53 SSE 3 10 Clear CLR 54 32     43%     30.07 30.07      
May 11 12:53   10 Clear CLR 68 35     30%     29.96 29.96      
Jun 12 05:53 Calm 10 Clear CLR 69 65     87%     29.96 29.96      
Jun 10 22:53 SSW 7 10 Clear   73 56     55%   73 29.99 29.99      
Jun 10 15:53 S 13 10 Clear CLR 83 55     38%   82 29.91 29.91      
Jun 08 08:53 Calm 10 Clear CLR 66 55     68%     30.04 30.04      
Jun 07 22:53 Calm 10 Clear CLR 52 50     93%     30.02 30.02      
Jun 07 11:53 NE 8 10 Cloudy OVC075 64 50     60%     29.96 29.96      
Jun 06 13:35 NNE 14 6 Light Rain and Fog/Mist SCT009 SCT018 OVC039 49 47     93% 44   29.83   0    
Jun 06 11:53 NE 11 1.25 Light Rain and Fog/Mist BKN007 OVC014 50 48     93% 46   29.84 29.83 0    
Notice The following observation data may not be complete
Jun 06 05:05   1.75 Fog/Mist OVC006          %              
Jun 05 21:53 ENE 9 2.5 Light Rain and Fog/Mist OVC006 54 53     97%     29.84 29.83 0    
Jun 05 18:53 ENE 8 1.75 Fog/Mist OVC006 55 53     93%     29.83 29.82